Flag for Canada Weather past 2 weeks in Prince George, British Columbia, Canada

52 °F

Broken clouds.

Feels Like: 48 °F
Forecast: 39 / 55 °F
Wind: 10 mph from Southwest

Location: Prince George

Current Time: Oct 13, 2015 at 3:15:15 PM

Latest Report: Oct 13, 2015 at 2:00 PM

Visibility: 9 mi

Pressure: 30.18 "Hg (28.17 "Hg at 573m altitude)

Humidity: 62%

Dew point: 39 °F

Location of Prince GeorgeLocation

Historic Weather in Prince George — Graph


Prince George temperature yesterday

Maximum temperature yesterday: 59 °F (at 4:00 PM)
Minimum temperature yesterday: 41 °F (at 10:00 PM)
Average temperature yesterday: 50 °F

Past Weeks' High & Low Weather Summary

High72 °F (Sep 30, 4:00 PM)100% (Oct 1, 4:00 AM)30.50 "Hg (Oct 1, 4:00 AM)
Low21 °F (Oct 4, 8:03 AM)33% (Oct 4, 5:00 PM)29.26 "Hg (Oct 10, 5:56 PM)
Average49 °F75%29.98 "Hg
* Reported Sep 28 1:00 PM — Oct 13 1:00 PM, Prince George, Weather by CustomWeather, © 2015

Note: Actual official high and low records may vary slightly from our data, if they occured in-between our weather recording intervals... More about our weather records


Prince George weather history for previous 24 hours

Time TempWeatherWind HumidityBarometerVisibility
1:00 PM
Tue, Oct 13
52 °FScattered clouds.13 mph58%30.18 "Hg9 mi
12:00 PM45 °FSunny.13 mph71%30.19 "Hg9 mi
11:00 AM48 °FPartly sunny.15 mph62%30.19 "Hg9 mi
10:00 AM45 °FBroken clouds.13 mph71%30.18 "Hg9 mi
9:00 AM41 °FPartly sunny.7 mph81%30.16 "Hg9 mi
8:00 AM39 °FPassing clouds.5 mph81%30.14 "Hg9 mi
7:00 AM39 °FOvercast.3 mph81%30.14 "Hg9 mi
6:00 AM39 °FOvercast.6 mph75%30.13 "Hg9 mi
5:00 AM36 °FPassing clouds.No wind81%30.11 "Hg9 mi
4:00 AM39 °FClear.6 mph75%30.10 "Hg9 mi
3:00 AM41 °FPassing clouds.7 mph70%30.09 "Hg9 mi
2:00 AM43 °FPassing clouds.10 mph66%30.07 "Hg9 mi
1:00 AM43 °FClear.13 mph66%30.06 "Hg9 mi
12:00 AM41 °FPassing clouds.9 mph70%30.05 "Hg9 mi
11:00 PM
Mon, Oct 12
41 °FPassing clouds.6 mph66%30.04 "Hg9 mi
10:00 PM41 °FClear.8 mph66%30.03 "Hg9 mi
9:00 PM48 °FClear.9 mph50%30.01 "Hg9 mi
8:00 PM50 °FClear.7 mph47%29.99 "Hg9 mi
7:00 PM52 °FSunny.10 mph47%29.96 "Hg9 mi
6:00 PM55 °FPartly sunny.8 mph41%29.93 "Hg9 mi
5:00 PM59 °FOvercast.12 mph34%29.92 "Hg9 mi
4:00 PM59 °FScattered clouds.15 mph39%29.91 "Hg9 mi
3:00 PM55 °FScattered clouds.10 mph51%29.92 "Hg9 mi
Weather by CustomWeather, © 2015

See weather overviewHow to use our weather pages